Idaho Cnty AP, Grangeville, I, ID

5:27 PM PDT on September 24, 2017 (GMT -0700)
Idaho Cnty AP, Grangeville, I

Weather History for KGIC - August, 2013

Change the Weather History Date:

Monday, August 26, 2013

  Actual Average (KP69) Record (KP69)
Temperature  
Mean Temperature 68 °F -  
Max Temperature 85 °F 83 °F 100 °F (2010)
Min Temperature 50 °F 51 °F 45 °F (2005)
Cooling Degree Days 2    
Growing Degree Days 18 (Base 50)    
Moisture  
Dew Point 44 °F    
Average Humidity 51    
Maximum Humidity 86    
Minimum Humidity 14    
Precipitation  
Precipitation 0.00 in - - ()
Sea Level Pressure  
Sea Level Pressure 30.02 in    
Wind  
Wind Speed 5 mph (ESE)    
Max Wind Speed 20 mph    
Max Gust Speed 30 mph    
Visibility 10 miles    
Events      
Averages and records for this station are not official NWS values.
T = Trace of Precipitation, MM = Missing Value Source: NWS Daily Summary

Daily Weather History Graph

Daily Weather History Graph

Search for Another Location

Airport or City:

Trip Planner

Search our weather history database for the weather conditions in past years. The results will help you decide how hot, cold, wet, or windy it might be!

Date:

Astronomy

Aug. 26, 2013 Rise Set
Actual Time 5:58 AM PDT 7:33 PM PDT
Civil Twilight 5:26 AM PDT 8:04 PM PDT
Nautical Twilight 4:48 AM PDT 8:42 PM PDT
Astronomical Twilight 4:07 AM PDT 9:23 PM PDT
Moon 10:23 PM PDT (8/26) 12:26 PM PDT (8/26)
Length of Visible Light 14h 37m
Length of Day
13h 34m
Waning Gibbous, 65% of the Moon is Illuminated
Aug 26
Waning Gibbous
Aug 28
Last Quarter
Sep 5
New
Sep 12
First Quarter
Sep 19
Full

Hourly Weather History & Observations

Time (PDT) Temp. Dew Point Humidity Pressure Visibility Wind Dir Wind Speed Gust Speed Precip Events Conditions
12:15 AM 59.5 °F 47.3 °F 64% 30.04 in 10.0 mi Calm Calm - N/A   Clear
12:35 AM 57.2 °F 46.9 °F 69% 30.02 in 10.0 mi ESE 12.7 mph - N/A   Clear
12:55 AM 58.8 °F 47.7 °F 66% 30.05 in 10.0 mi East 12.7 mph - N/A   Clear
1:15 AM 61.0 °F 48.7 °F 64% 30.04 in 10.0 mi East 13.8 mph - N/A   Mostly Cloudy
1:35 AM 58.3 °F 49.6 °F 73% 30.03 in 10.0 mi ENE 6.9 mph - N/A   Scattered Clouds
1:55 AM 55.9 °F 48.7 °F 77% 30.02 in 10.0 mi ENE 10.4 mph - N/A   Clear
2:15 AM 55.6 °F 48.6 °F 77% 30.02 in 10.0 mi NE 6.9 mph - N/A   Clear
2:35 AM 54.5 °F 48.4 °F 80% 30.02 in 10.0 mi NNE 9.2 mph - N/A   Clear
2:55 AM 54.0 °F 48.6 °F 82% 30.03 in 10.0 mi North 8.1 mph - N/A   Clear
3:15 AM 54.5 °F 48.7 °F 81% 30.04 in 10.0 mi South 3.5 mph - N/A   Clear
3:35 AM 53.1 °F 47.8 °F 82% 30.04 in 10.0 mi South 5.8 mph - N/A   Clear
3:55 AM 53.2 °F 47.8 °F 82% 30.04 in 10.0 mi Calm Calm - N/A   Clear
4:15 AM 51.8 °F 46.8 °F 83% 30.05 in 10.0 mi South 3.5 mph - N/A   Clear
4:35 AM 51.3 °F 46.8 °F 85% 30.04 in 10.0 mi Calm Calm - N/A   Clear
4:55 AM 51.1 °F 46.6 °F 85% 30.05 in 10.0 mi Calm Calm - N/A   Clear
5:15 AM 50.7 °F 46.4 °F 85% 30.05 in 10.0 mi Calm Calm - N/A   Scattered Clouds
5:35 AM 50.0 °F 46.0 °F 86% 30.06 in 10.0 mi WSW 4.6 mph - N/A   Scattered Clouds
5:55 AM 50.2 °F 46.0 °F 86% 30.05 in 10.0 mi Calm Calm - N/A   Clear
6:15 AM 50.7 °F 46.0 °F 84% 30.06 in 10.0 mi Calm Calm - N/A   Clear
6:35 AM 52.3 °F 47.1 °F 82% 30.07 in 10.0 mi South 3.5 mph - N/A   Clear
6:55 AM 54.1 °F 48.6 °F 81% 30.08 in 10.0 mi Calm Calm - N/A   Clear
7:15 AM 54.9 °F 49.1 °F 81% 30.08 in 10.0 mi South 3.5 mph - N/A   Clear
7:35 AM 54.9 °F 49.1 °F 81% 30.08 in 10.0 mi Calm Calm - N/A   Clear
7:55 AM 55.4 °F 50.2 °F 83% 30.08 in 10.0 mi Calm Calm - N/A   Unknown
8:15 AM 57.9 °F 50.7 °F 77% 30.08 in 10.0 mi Calm Calm - N/A   Clear
8:35 AM 60.3 °F 50.0 °F 69% 30.08 in 10.0 mi Calm Calm - N/A   Clear
8:55 AM 62.4 °F 49.6 °F 63% 30.08 in 10.0 mi Calm Calm - N/A   Clear
9:15 AM 64.4 °F 49.3 °F 58% 30.08 in 10.0 mi Calm Calm - N/A   Clear
9:35 AM 65.3 °F 49.5 °F 57% 30.07 in 10.0 mi North 3.5 mph - N/A   Clear
9:55 AM 66.7 °F 49.6 °F 54% 30.07 in 10.0 mi NE 3.5 mph - N/A   Clear
10:15 AM 67.5 °F 50.0 °F 53% 30.07 in 10.0 mi Calm Calm - N/A   Clear
10:35 AM 68.4 °F 50.0 °F 52% 30.06 in 10.0 mi NNE 3.5 mph - N/A   Clear
10:55 AM 69.3 °F 50.2 °F 51% 30.06 in 10.0 mi NNE 3.5 mph - N/A   Clear
11:15 AM 70.2 °F 49.6 °F 48% 30.05 in 10.0 mi North 3.5 mph - N/A   Clear
11:35 AM 71.6 °F 48.7 °F 44% 30.04 in 10.0 mi NE 4.6 mph - N/A   Clear
11:55 AM 72.7 °F 48.4 °F 42% 30.04 in 10.0 mi East 5.8 mph - N/A   Clear
12:15 PM 74.1 °F 48.0 °F 40% 30.03 in 10.0 mi NE 4.6 mph - N/A   Clear
12:35 PM 75.4 °F 46.9 °F 36% 30.02 in 10.0 mi East 6.9 mph - N/A   Clear
12:55 PM 77.5 °F 46.6 °F 33% 30.01 in 7.0 mi ENE 6.9 mph - N/A   Clear
1:15 PM 78.4 °F 45.9 °F 32% 30.00 in 5.0 mi East 5.8 mph - N/A   Clear
1:35 PM 79.7 °F 45.1 °F 29% 29.99 in 10.0 mi ENE 3.5 mph - N/A   Clear
1:55 PM 80.4 °F 44.4 °F 28% 29.98 in 10.0 mi ENE 8.1 mph - N/A   Scattered Clouds
2:15 PM 80.6 °F 43.3 °F 27% 29.98 in 10.0 mi South 4.6 mph - N/A   Scattered Clouds
2:35 PM 82.9 °F 38.3 °F 20% 29.96 in 10.0 mi SW 9.2 mph 17.3 mph N/A   Scattered Clouds
2:55 PM 85.1 °F 33.1 °F 15% 29.96 in 10.0 mi SSW 15.0 mph 20.7 mph N/A   Clear
3:15 PM 84.9 °F 32.4 °F 15% 29.96 in 10.0 mi SW 13.8 mph 18.4 mph N/A   Clear
3:35 PM 84.7 °F 32.2 °F 15% 29.95 in 10.0 mi South 13.8 mph 21.9 mph N/A   Clear
3:55 PM 84.0 °F 31.8 °F 15% 29.96 in 10.0 mi SW 9.2 mph 18.4 mph N/A   Clear
4:15 PM 84.7 °F 31.6 °F 15% 29.96 in 10.0 mi SSW 9.2 mph - N/A   Clear
4:35 PM 85.5 °F 31.8 °F 15% 29.96 in 10.0 mi SSW 17.3 mph 24.2 mph N/A   Scattered Clouds
4:55 PM 85.6 °F 31.1 °F 14% 29.96 in 10.0 mi WSW 19.6 mph 29.9 mph N/A   Scattered Clouds
5:15 PM 84.4 °F 29.5 °F 14% 29.96 in 10.0 mi WSW 18.4 mph 24.2 mph N/A   Clear
5:35 PM 83.3 °F 28.8 °F 14% 29.96 in 10.0 mi WSW 17.3 mph 25.3 mph N/A   Clear
5:55 PM 83.3 °F 29.7 °F 14% 29.96 in 10.0 mi WSW 15.0 mph 20.7 mph N/A   Clear
6:15 PM 83.5 °F 31.1 °F 15% 29.97 in 10.0 mi SW 15.0 mph 19.6 mph N/A   Clear
6:35 PM 80.1 °F 37.8 °F 22% 29.98 in 10.0 mi NNW 4.6 mph - N/A   Scattered Clouds
6:55 PM 76.8 °F 43.2 °F 30% 29.98 in 10.0 mi Calm Calm - N/A   Overcast
7:15 PM 76.8 °F 42.8 °F 30% 29.99 in 10.0 mi NNW 8.1 mph - N/A   Mostly Cloudy
7:35 PM 74.7 °F 42.4 °F 31% 29.99 in 10.0 mi NNW 6.9 mph - N/A   Mostly Cloudy
7:55 PM 71.1 °F 42.3 °F 35% 30.00 in 10.0 mi Calm Calm - N/A   Scattered Clouds
8:15 PM 68.5 °F 42.8 °F 39% 30.00 in 10.0 mi SE 4.6 mph - N/A   Clear
8:35 PM 69.4 °F 42.8 °F 38% 30.01 in 10.0 mi Calm Calm - N/A   Clear
8:55 PM 69.8 °F 42.8 °F 38% 30.02 in 10.0 mi North 4.6 mph - N/A   Clear
9:15 PM 68.9 °F 43.2 °F 39% 30.02 in 10.0 mi Calm Calm - N/A   Clear
9:35 PM 67.5 °F 43.2 °F 41% 30.02 in 10.0 mi Calm Calm - N/A   Clear
9:55 PM 67.3 °F 43.2 °F 42% 30.02 in 10.0 mi Calm Calm - N/A   Clear
10:15 PM 66.0 °F 43.3 °F 44% 30.03 in 10.0 mi Calm Calm - N/A   Clear
10:35 PM 65.3 °F 43.2 °F 45% 30.03 in 10.0 mi Calm Calm - N/A   Clear
10:55 PM 65.3 °F 43.2 °F 45% 30.04 in 10.0 mi Calm Calm - N/A   Clear
11:15 PM 64.8 °F 43.2 °F 45% 30.04 in 10.0 mi Calm Calm - N/A   Clear
11:35 PM 61.7 °F 43.3 °F 51% 30.04 in 10.0 mi Calm Calm - N/A   Clear
11:55 PM 59.2 °F 43.3 °F 56% 30.04 in 10.0 mi Calm Calm - N/A   Clear